This demonstration page uses our WeatherBlox Daily Observations layout. Learn more.

Left ArrowRight Arrow

39.29038, -76.61219

Hourly Observations for January 12, 2015

Temp ( °F °C ) Dew Point ( °F °C ) Humidity (%) Winds ( mph kmh ) Pressure ( in mb ) Visibility ( mi km ) Precip ( " mm )
12:54 am 00:54 undefined 35 1.7 25 -3.9 67 67 undefined N/A 30.48 1032 N/A 0.00 0.00
1:54 am 01:54 undefined 35 1.7 25 -3.9 67 67 undefined N/A 30.48 1032 N/A 0.00 0.00
2:54 am 02:54 undefined 34 1.1 28 -2.2 79 79 undefined N/A 30.47 1032 N/A 0.02 0.51
3:54 am 03:54 undefined 34 1.1 29 -1.7 82 82 undefined N/A 30.44 1031 N/A 0.05 1.27
4:54 am 04:54 undefined 33 0.6 30 -1.1 89 89 undefined N/A 30.40 1029 N/A 0.02 0.51
5:54 am 05:54 undefined 33 0.6 31 -0.6 92 92 undefined N/A 30.38 1029 N/A 0.00 0.00
6:54 am 06:54 undefined 34 1.1 32 0 92 92 undefined N/A 30.37 1028 N/A 0.03 0.76
7:54 am 07:54 undefined 34 1.1 32 0 92 92 undefined N/A 30.35 1028 N/A 0.07 1.78
8:54 am 08:54 undefined 34 1.1 32 0 92 92 undefined N/A 30.33 1027 N/A 0.05 1.27
9:54 am 09:54 undefined 35 1.7 33 0.6 93 93 undefined N/A 30.31 1026 N/A 0.03 0.76
10:54 am 10:54 undefined 35 1.7 33 0.6 93 93 undefined N/A 30.27 1025 N/A 0.04 1.02
11:54 am 11:54 undefined 36 2.2 34 1.1 93 93 undefined N/A 30.22 1024 N/A 0.13 3.30
12:54 pm 12:54 undefined 36 2.2 35 1.7 97 97 undefined N/A 30.19 1022 N/A 0.05 1.27
1:54 pm 13:54 undefined 37 2.8 35 1.7 93 93 undefined N/A 30.16 1021 N/A 0.03 0.76
2:54 pm 14:54 undefined 38 3.3 36 2.2 93 93 undefined N/A 30.15 1021 N/A 0.03 0.76
3:54 pm 15:54 undefined 38 3.3 36 2.2 93 93 undefined N/A 30.14 1021 N/A 0.02 0.51
4:54 pm 16:54 undefined 38 3.3 36 2.2 93 93 undefined N/A 30.14 1021 N/A 0.00 0.00
5:54 pm 17:54 undefined 39 3.9 36 2.2 89 89 undefined N/A 30.13 1020 N/A 0.01 0.25
6:54 pm 18:54 undefined 40 4.4 36 2.2 86 86 undefined N/A 30.14 1021 N/A 0.01 0.25
7:54 pm 19:54 undefined 40 4.4 36 2.2 86 86 undefined N/A 30.16 1021 N/A 0.00 0.00
8:54 pm 20:54 undefined 41 5 36 2.2 82 82 undefined N/A 30.18 1022 N/A 0.02 0.51
9:54 pm 21:54 undefined 41 5 36 2.2 82 82 undefined N/A 30.19 1022 N/A 0.04 1.02
10:54 pm 22:54 undefined 40 4.4 34 1.1 79 79 undefined N/A 30.24 1024 N/A 0.01 0.25
11:54 pm 23:54 undefined 40 4.4 33 0.6 77 77 undefined N/A 30.26 1025 N/A 0.00 0.00

Powered by AerisWeather